[[{"header":{"parameterUnit":"m.s-1","parameterCategory":1,"la1":30.2991,"la2":30.254,"lo1":-89.0895,"lo2":-89.0444,"dy":0.0017,"dx":0.0017,"nx":28,"ny":28,"refTime":"2024-12-21T03:00:00:Z","depth":0,"parameterNumber":2,"parameterNumberName":"U-component_of_WINDS"},"data":[0,0,0,0,0,0,0,0,0,0,0,0,0,0,0,0,0,0,0,0,0,0,0,0,0,0,0,0,0,0,0,0,0,0,0,0,0,0,0,0,0,0,0,0,0,0,0,0,0,0,0,0,0,0,0,0,0,0,-3.4045,-3.4045,0,-3.4097,-3.4098,-3.4098,-3.3978,-3.3974,-3.3971,-3.3967,-3.4021,-3.4026,-3.4031,0,0,0,0,0,0,0,0,0,0,0,0,0,-3.384,-3.3845,-3.4045,-3.4045,-3.4046,-3.4097,-3.4098,-3.4098,-3.3979,-3.3974,-3.397,-3.3965,-3.402,-3.4025,-3.4032,0,0,0,0,0,0,0,0,0,0,0,0,0,-3.3915,-3.3846,-3.4045,-3.3993,-3.3988,-3.4097,-3.4098,-3.4099,-3.398,-3.3974,-3.3968,-3.3963,-3.4018,-3.4025,-3.4032,-3.4194,0,0,-3.4055,-3.4059,0,0,0,0,0,0,0,0,-3.3911,-3.3922,-3.4,-3.3996,-3.3992,-3.4025,-3.4045,-3.4131,-3.3981,-3.3983,-3.3967,-3.396,-3.4027,-3.4034,-3.4056,-3.4196,-3.4199,-3.4056,-3.4061,-3.4064,-3.4066,0,0,0,0,0,0,0,-3.3906,-3.3919,-3.4065,-3.4001,-3.3996,-3.3966,-3.397,-3.4061,-3.4037,-3.3983,-3.3974,-3.3982,-3.4024,-3.4049,-3.4056,-3.42,-3.4056,-3.4062,-3.4067,-3.407,-3.4473,-3.4479,0,0,0,0,0,0,-3.3907,-3.3916,-3.4064,-3.4067,-3.3936,-3.3975,-3.3979,-3.402,-3.4036,-3.4032,-3.3987,-3.3976,-3.4039,-3.4048,-3.4058,-3.4247,-3.4064,-3.4071,-3.4075,-3.4467,-3.4475,-3.4481,0,0,0,0,0,0,-3.3903,-3.3921,-3.4062,-3.3989,-3.4005,-3.3984,-3.4031,-3.4025,-3.4049,-3.4039,-3.4034,-3.4017,-3.4035,-3.4047,-3.4161,-3.4248,-3.4074,-3.4081,-3.446,-3.4469,-3.4478,-3.4628,0,0,0,0,0,0,-3.3898,-3.3921,-3.3983,-3.3991,-3.4009,-3.4165,-3.4037,-3.403,-3.4063,-3.4049,-3.4066,-3.4063,-3.4031,-3.415,-3.4168,-3.4255,-3.4087,-3.4452,-3.4464,-3.4475,-3.4616,-3.4642,-3.4664,0,0,0,0,0,-3.3891,-3.4023,-3.3986,-3.4005,-3.4086,-3.417,-3.418,-3.4141,-3.407,-3.4132,-3.4124,-3.4062,-3.4235,-3.4163,-3.4182,-3.4272,-3.4446,-3.4461,-3.4474,-3.4605,-3.4636,-3.4663,0,0,0,0,0,0,-3.4026,-3.4024,-3.3983,-3.4122,-3.4147,-3.4149,-3.4226,-3.4176,-3.4222,-3.4207,-3.4157,-3.4161,-3.4284,-3.4289,-3.4209,-3.4428,-3.4328,-3.4347,-3.4421,-3.4451,-3.4475,-3.4472,-3.4093,0,0,0,0,0,-3.4071,-3.414,-3.4134,-3.4257,-3.4272,-3.4247,-3.4282,-3.425,-3.4274,-3.4284,-3.4285,-3.4311,-3.437,-3.4411,-3.4465,-3.4615,-3.4616,-3.4686,-3.4711,-3.473,-3.4747,-3.4826,-3.4857,-3.4527,-3.4527,-3.4527,0,0,-3.4167,-3.4174,-3.4221,-3.4285,-3.43,-3.4372,-3.4257,-3.4338,-3.439,-3.4296,-3.4403,-3.4405,-3.443,-3.4562,-3.462,-3.457,-3.4838,-3.4748,-3.4764,-3.477,-3.4843,-3.4875,-3.4902,-3.4537,-3.4535,-3.4533,0,0,-3.4378,-3.4391,-3.4494,-3.4512,-3.4536,-3.4518,-3.4544,-3.4553,-3.4551,-3.4657,-3.4587,-3.4648,-3.4753,-3.4773,-3.4797,-3.5014,-3.4958,-3.5033,-3.516,-3.5237,-3.5263,-3.5285,-3.5362,-3.539,-3.5049,-3.505,-3.505,0,-3.4494,-3.4599,-3.4554,-3.4639,-3.4669,-3.4586,-3.469,-3.4709,-3.4751,-3.4773,-3.4716,-3.4844,-3.4855,-3.499,-3.5043,-3.5065,-3.5091,-3.5031,-3.5262,-3.5285,-3.5305,-3.5378,-3.5407,-3.5059,-3.5058,-3.5057,-3.5056,0,-3.474,-3.4814,-3.4895,-3.4937,-3.4975,-3.507,-3.5038,-3.5082,-3.5046,-3.5034,-3.5142,-3.5152,-3.5207,-3.5236,-3.5202,-3.5366,-3.5334,-3.5271,-3.5169,-3.5347,-3.5414,-3.5441,-3.5071,-3.5068,-3.5065,-3.5063,0,0,-3.504,-3.5053,-3.5084,-3.5101,-3.5121,-3.5177,-3.5267,-3.532,-3.5359,-3.5389,-3.5463,-3.5552,-3.5493,-3.5521,-3.5487,-3.5555,-3.5725,-3.5483,-3.5482,-3.5527,-3.5906,-3.5954,-3.5987,-3.5688,-3.5693,-3.5697,-3.5904,0,-3.5248,-3.5403,-3.5363,-3.5517,-3.5584,-3.5505,-3.5583,-3.5604,-3.5595,-3.565,-3.5639,-3.5703,-3.562,-3.5636,-3.5699,-3.5691,-3.58,-3.5675,-3.5756,-3.5759,-3.5753,-3.6022,-3.6074,-3.6269,-3.593,-3.5934,-3.5937,0,-3.5512,-3.5553,-3.5713,-3.5721,-3.5747,-3.5819,-3.5863,-3.5917,-3.5938,-3.5926,-3.5956,-3.5909,-3.5997,-3.5894,-3.6014,-3.593,-3.596,-3.5961,-3.5967,-3.5974,-3.586,-3.6036,-3.633,-3.6359,-3.5979,-3.5975,-3.5972,0,-3.5714,-3.5809,-3.5916,-3.5934,-3.5945,-3.5997,-3.6004,-3.6019,-3.6053,-3.6092,-3.6113,-3.6161,-3.6188,-3.6226,-3.6193,-3.6121,-3.6318,-3.6213,-3.631,-3.6312,-3.6356,-3.6354,-3.6659,-3.6376,-3.6375,-3.6375,-3.6374,0,-3.5952,-3.6053,-3.6007,-3.6074,-3.6184,-3.6137,-3.6248,-3.6246,-3.626,-3.6324,-3.6258,-3.632,-3.6272,-3.6329,-3.6303,-3.6406,-3.6418,-3.6411,-3.6403,-3.6417,-3.6419,-3.6437,-3.6423,-3.6382,-3.6381,-3.6379,-3.6378,0,-3.6197,-3.617,-3.6282,-3.6284,-3.6286,-3.6368,-3.6368,-3.6429,-3.6414,-3.6496,-3.6513,-3.6489,-3.6553,-3.6523,-3.659,-3.6572,-3.6705,-3.6679,-3.6698,-3.6691,-3.6791,-3.6782,-3.7119,-3.716,-3.685,-3.6853,-3.6856,0,-3.635,-3.6426,-3.6435,-3.6473,-3.6485,-3.6547,-3.658,-3.6537,-3.6574,-3.6603,-3.6661,-3.6718,-3.6762,-3.6867,-3.6856,-3.6906,-3.6881,-3.6995,-3.6888,-3.6899,-3.6882,-3.6878,-3.6885,-3.7017,-3.7021,-3.7024,-3.7026,0,-3.6625,-3.6608,-3.6659,-3.6706,-3.6747,-3.6782,-3.681,-3.6845,-3.6802,-3.6847,-3.6911,-3.6945,-3.7013,-3.7071,-3.7114,-3.712,-3.7067,-3.706,-3.7085,-3.7101,-3.7108,-3.7105,-3.6757,-3.7053,-3.705,-3.7048,-3.7047,-3.7045,-3.6829,-3.6892,-3.6908,-3.6967,-3.6983,-3.7011,-3.7068,-3.706,-3.7113,-3.7164,-3.7134,-3.7209,-3.7226,-3.7279,-3.7292,-3.7349,-3.7304,-3.7341,-3.735,-3.736,-3.7373,-3.7099,-3.7357,-3.7356,-3.7356,-3.7355,-3.7354,0,-3.71,-3.7106,-3.716,-3.7202,-3.7248,-3.7192,-3.7221,-3.7263,-3.7329,-3.735,-3.7394,-3.7467,-3.7522,-3.7514,-3.7565,-3.7612,-3.7588,-3.7626,-3.7623,-3.7625,-3.7411,-3.7384,-3.7645,-3.7645,-3.7645,-3.7644,-3.7644,-3.7644,-3.7247,-3.7351,-3.7335,-3.7446,-3.745,-3.7523,-3.7544,-3.7569,-3.7585,-3.7669,-3.7715,-3.7709,-3.7718,-3.7768,-3.7816,-3.7812,-3.7833,-3.7881,-3.7868,-3.7669,-3.764,-3.7613,-3.7587,-3.7886,-3.7886,-3.8077,-3.8079,-3.808]},{"header":{"parameterUnit":"m.s-1","parameterCategory":1,"la1":30.2991,"la2":30.254,"lo1":-89.0895,"lo2":-89.0444,"dy":0.0017,"dx":0.0017,"nx":28,"ny":28,"refTime":"2024-12-21T03:00:00:Z","depth":0,"parameterNumber":3,"parameterNumberName":"V-component_of_WINDS"},"data":[0,0,0,0,0,0,0,0,0,0,0,0,0,0,0,0,0,0,0,0,0,0,0,0,0,0,0,0,0,0,0,0,0,0,0,0,0,0,0,0,0,0,0,0,0,0,0,0,0,0,0,0,0,0,0,0,0,0,-5.2299,-5.23,0,-5.2369,-5.237,-5.2371,-5.2285,-5.2281,-5.2278,-5.2275,-5.2344,-5.2348,-5.2353,0,0,0,0,0,0,0,0,0,0,0,0,0,-5.2084,-5.2089,-5.2299,-5.23,-5.2301,-5.2369,-5.237,-5.2371,-5.2285,-5.2281,-5.2277,-5.2274,-5.2342,-5.2348,-5.2353,0,0,0,0,0,0,0,0,0,0,0,0,0,-5.2168,-5.209,-5.2299,-5.2266,-5.2264,-5.2369,-5.237,-5.2371,-5.2286,-5.2281,-5.2276,-5.2272,-5.234,-5.2347,-5.2354,-5.2493,0,0,-5.2376,-5.2379,0,0,0,0,0,0,0,0,-5.2164,-5.2176,-5.227,-5.2269,-5.2266,-5.2313,-5.2319,-5.2412,-5.2287,-5.2278,-5.2275,-5.227,-5.2337,-5.2344,-5.2368,-5.2496,-5.2499,-5.2377,-5.2381,-5.2384,-5.2386,0,0,0,0,0,0,0,-5.2158,-5.2173,-5.2326,-5.2271,-5.2269,-5.2246,-5.2253,-5.2336,-5.2333,-5.2278,-5.2272,-5.2282,-5.2335,-5.2361,-5.2369,-5.25,-5.2376,-5.2383,-5.2387,-5.239,-5.2744,-5.2748,0,0,0,0,0,0,-5.2157,-5.2169,-5.2324,-5.2329,-5.2202,-5.2254,-5.2261,-5.2303,-5.2332,-5.2332,-5.2286,-5.2277,-5.2351,-5.236,-5.2371,-5.2534,-5.2384,-5.2391,-5.2395,-5.2738,-5.2745,-5.275,0,0,0,0,0,0,-5.2152,-5.2171,-5.2321,-5.2247,-5.2264,-5.2263,-5.231,-5.2307,-5.2333,-5.2338,-5.2336,-5.2313,-5.2348,-5.2361,-5.2463,-5.2535,-5.2394,-5.24,-5.2732,-5.274,-5.2747,-5.2862,0,0,0,0,0,0,-5.2147,-5.217,-5.2225,-5.2249,-5.2269,-5.2415,-5.2315,-5.2312,-5.2346,-5.2336,-5.2363,-5.2363,-5.2345,-5.2453,-5.247,-5.2542,-5.2406,-5.2726,-5.2736,-5.2745,-5.2852,-5.2873,-5.289,0,0,0,0,0,-5.2139,-5.2254,-5.2228,-5.2247,-5.2337,-5.2419,-5.243,-5.2408,-5.2352,-5.2405,-5.2408,-5.2362,-5.2524,-5.2464,-5.2483,-5.2558,-5.2721,-5.2733,-5.2744,-5.2843,-5.2868,-5.289,0,0,0,0,0,0,-5.2237,-5.2257,-5.2228,-5.2354,-5.2386,-5.2404,-5.2471,-5.2436,-5.2483,-5.2472,-5.2441,-5.2448,-5.2557,-5.2568,-5.25,-5.2693,-5.2613,-5.2629,-5.2682,-5.2706,-5.2725,-5.272,-5.2412,0,0,0,0,0,-5.2274,-5.2341,-5.2353,-5.2463,-5.2481,-5.2474,-5.2509,-5.2489,-5.252,-5.2532,-5.2542,-5.2573,-5.263,-5.2669,-5.2722,-5.2853,-5.2856,-5.2913,-5.2933,-5.2949,-5.2962,-5.303,-5.3055,-5.2788,-5.2788,-5.2788,0,0,-5.235,-5.2368,-5.2412,-5.2483,-5.2505,-5.2573,-5.2485,-5.2561,-5.261,-5.2543,-5.264,-5.2649,-5.268,-5.2797,-5.2849,-5.2809,-5.3037,-5.2963,-5.2976,-5.2981,-5.3044,-5.3069,-5.3092,-5.2796,-5.2794,-5.2793,0,0,-5.2522,-5.2544,-5.2637,-5.2661,-5.2696,-5.269,-5.2712,-5.2736,-5.2739,-5.2837,-5.2787,-5.2844,-5.2945,-5.2968,-5.2994,-5.3173,-5.3132,-5.3191,-5.3292,-5.3358,-5.3379,-5.3398,-5.346,-5.3483,-5.3205,-5.3206,-5.3206,0,-5.2612,-5.2714,-5.2689,-5.2769,-5.28,-5.2743,-5.2835,-5.2859,-5.2909,-5.2931,-5.2887,-5.301,-5.3027,-5.3148,-5.3191,-5.3214,-5.3237,-5.3188,-5.3379,-5.3397,-5.3413,-5.3472,-5.3496,-5.3212,-5.3212,-5.3211,-5.321,0,-5.2821,-5.2892,-5.2963,-5.3013,-5.3053,-5.3138,-5.3125,-5.3167,-5.3144,-5.3142,-5.324,-5.3259,-5.3314,-5.3341,-5.3319,-5.3458,-5.3432,-5.3384,-5.3303,-5.3446,-5.3501,-5.3523,-5.3222,-5.322,-5.3218,-5.3216,0,0,-5.3058,-5.3093,-5.3119,-5.314,-5.3174,-5.3227,-5.3309,-5.3363,-5.34,-5.3435,-5.3502,-5.3587,-5.3542,-5.3571,-5.355,-5.3608,-5.3747,-5.3552,-5.3552,-5.3586,-5.3898,-5.3934,-5.3961,-5.372,-5.3724,-5.3727,-5.3895,0,-5.323,-5.3373,-5.3352,-5.3489,-5.3553,-5.3499,-5.3569,-5.3596,-5.3596,-5.3649,-5.3648,-5.3709,-5.3645,-5.3662,-5.3717,-5.3719,-5.3809,-5.3706,-5.3779,-5.3782,-5.3772,-5.3989,-5.4028,-5.4185,-5.3917,-5.392,-5.3923,0,-5.3449,-5.3494,-5.3637,-5.3658,-5.3684,-5.3749,-5.3796,-5.3848,-5.3876,-5.3872,-5.3903,-5.3872,-5.3951,-5.387,-5.3977,-5.3907,-5.3936,-5.3941,-5.3946,-5.3951,-5.3861,-5.3999,-5.4235,-5.4258,-5.3957,-5.3954,-5.3951,0,-5.3606,-5.3701,-5.3799,-5.3819,-5.3847,-5.3893,-5.3906,-5.393,-5.3963,-5.4004,-5.4025,-5.4074,-5.4101,-5.4139,-5.412,-5.4063,-5.423,-5.4148,-5.4227,-5.4228,-5.4264,-5.4262,-5.4507,-5.4285,-5.4284,-5.4284,-5.4284,0,-5.3799,-5.3888,-5.3869,-5.3929,-5.4027,-5.4001,-5.4098,-5.4105,-5.4126,-5.4184,-5.414,-5.4196,-5.4169,-5.4222,-5.4207,-5.4297,-5.431,-5.4307,-5.4302,-5.4311,-5.4311,-5.4328,-5.4316,-5.429,-5.4289,-5.4288,-5.4287,0,-5.399,-5.3981,-5.4084,-5.4101,-5.4108,-5.4179,-5.4193,-5.4248,-5.4244,-5.4318,-5.4334,-5.4328,-5.4388,-5.4373,-5.4439,-5.4429,-5.4542,-5.4524,-5.4533,-5.4528,-5.4607,-5.4599,-5.4871,-5.4904,-5.4662,-5.4664,-5.4666,0,-5.4113,-5.4181,-5.4206,-5.4242,-5.4259,-5.4319,-5.4353,-5.4329,-5.4366,-5.4402,-5.4452,-5.4508,-5.4552,-5.465,-5.465,-5.4699,-5.468,-5.4772,-5.4687,-5.4693,-5.468,-5.4676,-5.4681,-5.4789,-5.4792,-5.4794,-5.4796,0,-5.4333,-5.4324,-5.4376,-5.4425,-5.4467,-5.4505,-5.4538,-5.457,-5.4548,-5.4592,-5.4653,-5.4687,-5.4753,-5.4808,-5.4853,-5.4864,-5.4826,-5.4822,-5.4843,-5.4852,-5.4854,-5.4852,-5.4577,-5.4816,-5.4814,-5.4813,-5.4811,-5.4811,-5.4492,-5.4549,-5.4575,-5.4633,-5.4655,-5.4687,-5.4739,-5.4742,-5.4793,-5.4845,-5.4828,-5.4897,-5.4921,-5.4977,-5.4994,-5.5047,-5.5012,-5.5042,-5.5049,-5.5057,-5.5066,-5.4846,-5.5055,-5.5054,-5.5054,-5.5053,-5.5053,0,-5.4708,-5.4721,-5.4775,-5.4823,-5.4868,-5.4829,-5.4863,-5.4903,-5.4965,-5.4991,-5.5034,-5.5103,-5.5156,-5.5161,-5.521,-5.5251,-5.5234,-5.5264,-5.526,-5.5263,-5.5095,-5.5072,-5.5277,-5.5277,-5.5277,-5.5277,-5.5277,-5.5277,-5.4825,-5.4918,-5.4913,-5.5016,-5.5028,-5.5097,-5.5119,-5.5147,-5.5167,-5.5247,-5.5291,-5.5294,-5.531,-5.536,-5.5406,-5.5406,-5.5425,-5.5462,-5.5455,-5.5298,-5.5275,-5.5254,-5.5232,-5.5467,-5.5467,-5.5618,-5.5619,-5.562]}]]